Wind_Speed
23 24 26 27 28 28 29 30 30 31 32 34 35 36 37 38 39 40 41 41 42 41 41 42 42 38 33 28 26 26 30 35 39 41 42 43 44 45 45 46 46 46 46 46 46 46 45 43 40 37 34 32 32 30 29 28 28 30 31 32 34 34 33 32 31 29 27 25 23
23 24 25 26 27 28 29 29 30 31 31 32 33 34 34 35 37 38 38 39 40 40 41 41 41 40 37 33 31 30 31 35 39 41 42 43 44 45 46 47 47 47 47 47 47 47 45 43 40 37 34 32 31 30 29 29 30 33 35 36 36 35 33 31 29 27 24 23 22
23 24 25 26 27 28 28 29 29 30 30 31 31 32 33 34 35 36 37 38 39 40 41 41 41 40 39 37 35 35 35 37 39 41 41 42 42 43 45 46 47 47 47 46 46 45 44 41 39 37 34 33 33 34 34 32 33 35 37 37 36 34 32 30 27 25 23 22 22
24 24 24 25 26 27 28 28 28 28 28 29 30 31 32 33 34 35 36 37 38 39 40 41 40 40 39 38 37 37 37 38 39 40 41 42 42 42 43 45 46 47 47 46 45 44 42 39 37 34 32 31 32 34 35 35 34 35 37 37 35 32 30 27 25 24 23 23 22
22 23 24 24 24 25 25 26 26 27 27 28 29 31 32 33 34 35 36 37 38 39 39 39 40 39 39 38 37 37 38 38 39 39 40 41 42 42 42 43 44 45 45 45 44 42 40 38 35 33 30 28 29 30 32 32 32 34 36 36 34 31 28 25 24 24 24 23 23
18 20 22 22 21 21 21 22 23 24 25 27 29 30 31 32 33 34 35 36 37 37 38 38 39 39 39 38 38 38 38 38 38 39 39 40 41 42 42 42 42 42 43 44 43 42 40 37 35 32 29 27 26 27 28 29 30 33 35 35 33 30 27 25 25 25 24 24 23
15 17 18 19 19 18 18 18 18 20 22 25 27 29 30 31 32 33 34 35 36 36 37 38 38 39 39 39 39 39 39 39 39 39 39 39 40 41 42 42 41 40 40 41 41 41 39 37 34 31 29 27 27 27 28 29 31 33 35 35 32 29 28 27 27 27 26 24 24
14 15 16 17 18 17 16 16 16 17 19 22 25 26 28 29 31 32 33 34 35 36 37 37 38 39 39 40 40 40 40 40 39 39 38 38 39 40 40 41 40 39 38 37 38 38 37 35 32 30 29 29 29 29 30 31 32 34 35 34 32 31 30 30 30 28 27 25 23
15 15 16 17 17 17 16 16 15 16 17 19 22 24 26 28 31 32 33 34 35 35 36 37 38 38 39 40 40 40 40 40 39 39 38 38 38 39 39 39 39 37 36 34 34 35 35 33 31 30 30 30 31 32 33 34 35 35 35 34 33 33 33 32 30 28 26 24 22
16 16 16 16 17 17 16 16 16 16 17 18 20 23 26 29 31 33 34 34 34 35 35 36 37 38 39 39 40 40 40 39 39 39 38 38 38 38 38 37 36 35 35 33 32 32 32 32 31 30 30 31 33 35 36 36 36 36 35 34 34 34 33 32 29 26 24 22 20
17 16 15 15 16 16 16 16 16 17 17 18 20 23 27 30 32 33 34 34 35 35 36 36 37 37 38 38 39 39 38 38 38 38 38 38 38 37 35 33 33 33 33 33 32 31 31 31 31 31 31 33 35 37 38 38 37 36 35 35 35 34 32 30 27 24 22 20 19
17 16 15 15 15 15 16 16 17 17 17 19 21 24 27 30 32 33 34 35 35 36 36 36 36 37 37 37 37 38 38 38 38 38 38 38 37 35 32 31 30 30 31 31 32 32 32 32 31 32 33 36 37 39 39 39 37 36 36 35 34 32 29 26 24 23 21 20 18
18 16 15 15 15 15 16 16 16 17 18 19 21 24 27 30 32 33 34 35 36 36 35 35 36 36 36 36 37 37 37 37 37 37 37 36 35 33 30 29 28 29 29 30 31 32 33 32 32 34 36 38 40 40 39 38 36 35 34 33 30 27 25 24 22 21 20 18 16
19 17 16 15 15 15 15 16 16 17 18 20 22 24 27 30 31 33 34 35 36 36 35 35 35 35 36 36 36 36 37 36 36 36 36 35 33 31 29 28 27 28 29 30 31 32 32 32 34 36 38 40 40 39 37 35 33 32 30 28 26 25 24 23 21 20 18 16 14
21 18 16 15 15 15 15 15 16 17 18 20 22 24 27 29 31 33 34 35 35 35 35 35 35 35 35 36 36 36 36 35 35 36 35 34 31 29 27 26 26 27 28 29 30 31 32 33 35 37 39 39 38 35 33 30 29 27 26 25 24 24 23 22 20 17 15 13 13
24 21 18 16 15 15 15 15 16 17 19 21 23 25 27 29 31 32 33 34 35 35 35 35 35 35 35 35 35 35 35 35 35 35 34 31 29 28 26 25 25 26 28 29 30 31 32 34 35 36 36 35 32 30 28 27 26 25 25 25 24 23 22 19 17 14 13 12 12
27 24 20 17 16 15 15 16 16 17 19 21 23 25 27 29 30 31 33 34 35 35 36 36 36 35 35 34 34 34 34 35 35 33 31 28 27 26 25 24 25 26 28 29 30 32 33 34 34 33 31 29 28 27 26 27 26 26 26 25 23 21 19 16 14 13 12 11 11
28 25 22 17 16 15 16 16 16 17 19 21 23 25 27 28 29 31 32 33 34 35 36 36 35 35 34 34 33 34 34 35 33 31 28 26 25 24 24 24 25 27 28 29 31 33 33 33 31 29 28 26 26 27 27 28 27 26 25 23 21 18 16 14 13 12 11 11 10
25 23 19 16 16 16 16 16 17 17 19 20 22 24 26 27 29 30 31 32 33 34 35 35 34 34 34 34 34 34 34 33 31 28 26 25 24 24 25 26 27 27 29 30 31 32 32 31 29 27 27 26 27 28 28 27 26 24 22 20 18 16 14 13 12 11 11 10 10
17 16 15 15 15 16 17 17 17 17 18 19 21 23 25 27 28 29 30 31 32 32 33 34 34 34 34 34 34 34 33 31 28 26 25 25 25 26 27 27 28 28 29 30 31 31 30 29 28 27 27 27 27 27 26 24 23 21 20 18 16 15 13 12 11 10 10 10 10
12 12 13 13 14 16 17 17 17 18 18 19 20 22 24 26 27 28 29 30 31 32 32 33 34 34 34 34 34 33 32 30 27 26 26 26 27 27 28 28 28 29 29 30 31 30 29 28 28 27 27 26 26 25 23 22 21 19 18 16 15 13 12 11 10 10 10 10 10
12 12 12 12 13 15 17 17 18 18 18 19 20 21 23 25 27 28 29 29 30 31 33 33 34 34 34 34 33 32 30 29 27 27 27 27 28 28 28 28 28 29 30 31 30 29 28 27 27 26 26 25 24 23 22 21 20 18 16 14 12 11 10 9 9 9 10 10 10
12 12 12 12 13 15 16 17 18 19 19 20 21 22 23 25 26 27 28 29 30 32 32 33 33 33 32 32 31 30 29 28 28 28 29 29 28 28 28 27 28 29 30 30 29 28 26 26 25 25 24 23 23 22 21 20 18 16 13 11 10 9 8 9 9 9 10 10 10
12 13 13 14 14 15 15 17 18 19 20 21 22 23 24 25 26 27 28 29 30 31 32 32 32 32 31 30 29 29 29 29 30 30 30 29 28 27 27 27 28 28 28 27 26 24 24 24 24 24 23 23 22 21 19 17 15 12 10 9 8 8 8 8 9 9 10 10 11
13 13 14 14 14 15 16 17 18 20 21 22 22 23 24 25 26 27 28 29 30 30 31 31 31 30 30 30 29 29 30 30 30 30 29 28 26 26 25 25 26 25 24 23 22 22 22 23 23 23 23 22 20 18 16 13 11 9 8 7 7 7 8 9 9 10 10 11 11
14 14 14 15 15 16 17 18 19 20 21 22 22 23 23 24 25 26 27 28 29 29 30 30 30 30 30 30 30 30 30 29 28 27 26 25 24 23 23 23 22 22 21 21 21 22 22 22 22 22 20 19 17 14 12 10 8 7 6 7 7 8 8 9 9 10 11 11 12
15 15 15 16 17 18 18 19 20 21 22 22 23 23 23 24 25 25 26 27 28 29 29 30 30 30 30 30 30 29 27 26 24 22 21 21 20 20 20 20 20 21 21 22 22 22 22 21 20 18 17 15 13 11 9 7 6 6 7 7 7 8 9 9 10 11 11 12 12
17 17 17 17 18 19 20 21 21 22 22 23 23 23 24 24 24 25 26 27 28 28 29 29 29 29 29 28 26 24 22 20 18 17 17 17 18 18 19 20 21 21 22 22 22 21 20 18 16 15 13 11 9 8 7 6 6 6 7 7 8 8 9 10 11 11 12 12 12
18 18 18 19 19 20 21 21 22 22 23 23 23 23 24 24 24 25 25 26 27 27 27 28 27 26 25 23 20 18 16 15 14 14 15 16 17 19 20 21 22 22 21 20 19 18 16 15 13 11 10 8 7 7 6 6 6 6 7 7 8 9 9 10 11 11 12 12 12
18 18 18 19 20 20 21 21 21 22 22 22 23 23 23 23 23 23 24 24 24 24 25 24 23 21 19 17 15 13 12 12 12 14 15 17 19 21 21 21 21 20 18 17 16 15 13 12 10 9 7 7 6 6 6 6 6 6 7 8 9 9 10 10 11 11 12 12 13
17 18 18 19 19 20 20 19 20 21 21 21 21 21 21 21 21 21 21 21 21 20 20 19 17 15 13 12 11 11 11 12 14 15 17 19 20 21 21 20 18 17 15 14 13 12 10 9 7 6 6 6 6 6 6 6 6 7 8 8 9 10 10 11 11 11 12 13 13
16 16 17 17 17 17 17 17 18 18 19 19 18 18 18 18 18 18 18 17 16 15 13 11 10 10 9 9 10 10 12 13 15 17 18 19 20 20 19 18 16 15 14 12 11 10 8 7 6 6 6 5 5 5 6 6 7 8 8 9 9 10 10 11 11 12 12 13 13
13 13 14 14 14 13 13 14 15 15 16 16 15 15 15 15 15 15 14 13 11 10 8 7 7 8 8 9 9 11 12 13 15 16 18 18 19 19 18 16 15 13 12 10 9 7 6 6 5 5 5 5 5 6 6 7 8 8 9 9 10 10 10 11 11 12 12 13 13
11 11 11 11 11 10 10 11 12 13 13 13 13 13 13 12 12 11 10 9 8 7 7 6 6 6 7 7 8 10 12 13 15 16 17 17 17 16 15 14 13 11 10 8 7 6 5 5 5 5 5 5 6 6 7 8 8 8 9 9 9 10 10 11 11 12 12 13 13
10 10 10 9 8 8 9 10 11 11 11 11 11 10 10 9 9 8 8 7 6 6 6 5 5 6 6 7 7 9 12 14 16 16 16 16 15 14 13 12 11 9 8 7 6 5 4 4 5 5 5 6 6 7 7 8 8 8 8 9 9 10 10 11 11 12 12 13 13
8 8 8 7 7 7 8 9 10 10 10 9 9 8 7 7 6 6 5 5 5 6 6 7 7 7 8 9 10 12 14 15 16 15 15 14 13 11 10 9 8 7 6 5 4 4 4 4 5 5 6 6 7 7 7 7 7 8 8 9 10 10 11 11 12 12 13 13 13
5 5 5 5 6 7 8 8 8 8 8 7 6 5 4 4 5 5 4 5 6 7 7 8 8 9 10 12 14 15 15 15 14 14 13 12 10 9 8 7 6 6 5 4 4 3 4 4 5 5 6 6 6 6 6 7 8 9 9 10 11 11 11 12 12 12 13 13 14
3 4 4 5 6 6 6 6 6 5 5 4 4 4 4 5 5 6 6 6 6 7 9 10 11 12 13 14 15 15 15 14 13 12 11 10 9 8 7 6 5 4 4 4 3 3 3 4 4 4 5 5 5 6 7 8 9 10 10 11 11 11 11 12 12 12 13 13 14
2 2 2 3 3 3 3 3 3 3 4 4 5 5 6 6 7 7 7 7 8 10 11 13 14 15 16 16 16 15 15 13 12 11 11 10 8 7 6 5 4 3 3 3 3 3 2 2 3 4 4 5 6 7 8 9 10 10 11 11 11 11 12 12 12 12 13 13 13
3 3 3 2 2 2 3 4 4 5 5 6 6 7 7 8 8 9 10 11 12 13 15 16 17 17 17 16 15 15 14 13 12 11 10 9 8 6 5 3 3 2 2 2 2 3 2 2 3 4 5 6 7 8 9 10 10 11 11 11 11 12 12 12 12 12 12 12 12
6 6 6 6 6 6 6 6 6 7 7 8 8 9 10 11 12 13 14 15 16 17 18 18 18 17 16 15 14 13 12 11 10 9 8 7 6 4 3 2 1 1 1 2 3 4 5 5 5 6 6 7 8 9 10 11 11 12 12 12 12 12 12 12 12 12 12 12 12
Wind_Direction
262 260 259 258 258 258 258 258 258 258 257 256 255 255 254 252 252 252 253 254 256 258 260 262 262 258 255 256 259 261 259 253 248 247 247 246 245 243 242 242 241 241 241 241 241 242 241 239 235 233 233 238 242 242 236 224 215 214 218 222 225 227 227 226 226 226 227 228 228
264 263 261 260 259 258 258 259 259 259 259 259 259 258 257 256 256 255 255 256 257 258 259 260 260 258 255 253 254 256 257 255 251 250 250 250 250 249 247 245 243 242 241 241 242 242 242 241 238 236 236 239 243 244 241 232 222 218 219 222 224 226 226 226 227 227 227 227 228
267 265 263 260 258 257 257 258 259 260 260 261 261 261 260 259 259 258 257 257 257 257 258 258 259 258 256 254 252 251 250 250 249 250 250 252 253 254 253 250 247 244 243 243 243 244 243 241 239 237 236 238 243 250 252 247 237 227 222 222 224 225 226 226 227 226 226 226 227
269 267 265 263 261 260 259 259 260 261 262 263 263 263 262 261 261 259 258 257 256 256 257 257 258 258 257 255 252 250 249 249 249 250 251 252 255 256 257 255 251 248 246 245 244 244 243 241 239 237 237 239 244 250 255 254 246 234 225 223 223 223 224 224 224 224 224 225 228
270 270 269 268 267 266 265 264 263 263 263 263 263 263 263 263 262 260 258 257 256 256 256 256 256 256 256 255 253 252 251 252 252 253 253 255 256 257 258 258 255 252 249 247 245 244 243 242 241 240 240 242 245 249 251 251 244 234 226 222 221 221 221 221 222 223 224 226 230
270 271 271 272 272 273 272 270 268 266 264 263 262 262 263 263 263 261 259 258 257 257 256 255 254 254 254 254 254 254 254 255 256 257 258 258 258 258 257 257 256 255 252 249 247 245 244 244 243 243 242 243 245 246 245 243 237 229 223 219 218 217 217 217 220 222 225 227 230
269 271 272 273 274 276 277 278 276 271 267 263 262 261 262 263 263 263 262 261 259 257 254 252 252 252 253 253 254 255 257 259 260 261 261 261 260 258 256 254 254 254 253 252 249 248 246 246 244 242 241 242 244 243 239 234 229 223 219 217 216 215 214 215 219 222 224 226 228
266 269 271 273 274 276 279 282 281 276 270 265 262 262 262 263 263 263 262 261 259 256 254 252 251 252 253 254 255 257 259 261 262 263 264 263 262 260 257 254 253 253 253 253 251 250 248 247 244 241 240 241 243 240 234 229 224 220 217 215 214 213 214 216 219 221 223 225 227
267 268 271 273 275 277 280 284 284 280 274 269 266 264 263 262 261 261 261 260 259 257 254 252 252 252 253 254 256 258 260 262 263 264 265 264 264 262 259 256 254 254 255 254 253 251 249 247 243 240 239 240 241 238 232 226 222 219 216 213 211 212 215 217 219 221 223 224 226
272 271 273 275 277 279 282 284 284 282 279 275 270 265 262 260 260 260 260 260 259 257 254 252 253 253 253 254 256 258 260 262 263 263 264 264 264 263 261 259 258 257 257 255 253 252 250 247 243 240 238 238 237 234 230 226 222 219 214 210 210 213 216 218 219 221 221 223 224
278 276 276 277 279 281 282 282 281 280 279 276 270 264 260 258 257 258 258 258 257 255 254 254 254 254 254 255 257 258 260 261 261 262 262 262 262 262 262 262 263 262 260 258 256 254 252 248 243 239 237 235 232 230 228 226 222 216 211 208 210 213 216 217 218 218 219 220 221
285 282 281 281 281 281 280 279 278 278 277 273 267 262 258 256 255 255 255 255 254 254 254 254 254 254 255 257 258 259 259 260 260 260 260 260 259 260 261 263 264 264 263 261 259 257 254 249 243 238 234 231 228 226 225 222 217 212 208 207 210 212 214 214 215 215 217 218 218
292 289 287 285 284 282 281 279 278 276 274 269 265 260 256 254 253 253 253 252 252 253 253 253 253 253 254 256 257 258 258 258 258 258 258 257 256 257 258 260 262 264 263 261 258 256 252 247 240 234 229 227 225 223 220 217 212 208 206 208 210 211 212 212 212 213 215 216 218
299 296 293 290 289 287 284 281 278 275 271 267 262 259 255 253 251 251 250 251 251 251 251 251 251 252 253 254 256 257 257 257 257 257 256 254 253 253 255 257 260 261 261 258 255 252 247 241 235 229 225 222 220 217 214 211 208 206 207 209 210 210 210 211 211 213 214 217 221
305 303 299 295 293 290 287 283 278 273 269 264 261 258 255 252 250 249 248 249 249 249 250 249 249 250 252 253 254 255 256 256 256 255 253 251 250 252 254 257 258 258 257 254 251 246 241 235 229 225 221 218 215 212 209 207 206 207 208 209 209 209 209 211 212 213 215 218 225
303 305 303 299 296 292 288 282 276 272 267 263 261 258 255 251 249 247 246 246 246 247 248 248 249 250 251 253 254 255 257 257 256 253 251 249 251 253 256 259 260 258 254 250 246 240 235 229 224 220 216 213 210 207 206 205 206 207 207 208 208 209 210 211 212 213 216 221 229
289 296 299 298 295 291 286 280 275 272 267 263 261 258 255 251 248 246 244 244 245 245 246 247 249 250 252 255 257 258 259 258 255 251 249 250 253 257 261 263 262 258 253 247 241 235 228 222 218 214 210 207 205 204 205 205 206 207 207 208 208 208 209 209 211 213 218 225 232
274 281 289 292 291 287 282 278 275 272 269 265 261 258 255 252 248 246 244 244 244 245 246 247 250 252 255 257 259 260 258 255 252 250 249 251 255 260 264 266 263 257 249 242 235 228 222 215 210 206 203 202 203 204 205 206 206 207 207 207 207 207 207 208 211 215 222 229 236
265 272 281 287 286 282 279 277 276 275 271 267 263 259 255 252 249 247 246 245 246 246 247 249 251 253 255 256 256 256 254 251 249 249 250 252 256 260 262 262 258 251 242 234 226 220 214 208 203 200 199 200 203 205 206 206 206 205 205 204 204 204 206 209 214 220 227 234 241
266 273 282 285 282 278 276 276 277 275 273 269 265 260 255 252 250 248 247 246 247 248 249 250 251 252 253 253 252 251 249 247 246 246 249 251 252 254 255 254 249 242 233 224 216 210 205 201 198 197 198 201 203 205 205 205 203 202 202 202 202 204 208 213 219 227 234 240 246
284 284 284 283 280 278 277 277 276 275 273 272 267 261 256 253 250 248 247 247 247 247 247 248 248 249 249 249 247 246 244 243 243 243 245 246 246 246 246 244 239 231 221 213 206 202 198 197 197 198 200 202 204 204 203 202 200 199 200 201 203 207 212 219 228 235 243 249 256
290 287 285 284 281 278 276 275 274 272 271 270 267 261 255 251 249 247 245 245 244 244 244 243 243 243 244 244 243 242 241 241 240 240 241 241 240 239 237 234 227 219 210 203 198 196 195 196 198 200 202 203 203 202 201 200 199 199 199 201 205 212 220 230 239 247 255 261 266
288 287 285 281 275 271 269 268 267 266 264 263 260 256 251 248 246 244 242 241 240 239 239 238 238 238 238 239 239 239 239 240 239 238 237 236 234 232 229 223 215 207 201 196 194 194 195 197 200 202 203 203 202 201 200 199 198 198 200 203 211 222 233 244 254 261 267 271 275
282 278 273 267 261 259 258 258 257 254 253 252 251 249 247 244 242 240 239 237 236 235 235 234 234 235 235 236 237 238 239 239 238 236 234 232 229 225 220 212 204 199 195 194 195 197 199 202 203 204 203 202 201 200 199 198 197 198 202 210 223 237 250 259 266 271 275 277 278
275 269 261 254 249 248 249 249 247 245 243 243 244 243 242 240 239 237 236 235 234 234 233 233 233 234 236 236 237 237 237 236 234 232 230 226 222 216 209 202 197 194 194 194 197 200 203 205 206 205 204 202 201 199 197 195 196 201 211 225 240 253 262 268 273 275 276 277 278
266 262 256 250 244 241 240 239 240 239 238 238 238 238 237 236 236 235 234 233 233 233 233 233 234 235 235 235 235 233 231 229 228 227 225 220 214 207 201 196 193 192 193 196 199 201 202 203 203 203 202 200 197 194 193 195 201 212 227 242 254 262 269 273 275 276 277 278 279
256 252 250 249 245 239 235 233 233 232 232 233 233 233 233 234 233 233 232 231 231 232 232 232 232 232 232 231 228 225 223 222 222 221 219 215 208 200 195 192 190 191 194 196 198 199 200 199 198 198 197 194 192 191 194 204 216 230 243 255 263 269 273 276 277 279 280 282 283
252 247 245 245 241 237 233 231 228 226 225 226 227 228 229 230 230 229 228 228 228 228 228 227 227 226 225 223 220 218 217 217 215 213 211 207 200 194 189 187 188 190 193 195 197 197 196 194 193 191 189 189 191 197 208 221 233 246 256 265 271 275 277 278 280 282 284 286 288
251 247 244 240 237 234 232 228 225 223 222 222 222 223 224 224 224 223 223 223 222 222 220 220 219 218 216 213 212 212 212 210 208 203 198 192 188 186 185 186 187 189 191 193 193 192 190 188 186 185 187 191 201 212 225 237 249 260 268 274 276 278 279 281 283 285 288 290 292
251 248 245 241 237 233 230 228 226 224 222 221 220 220 220 219 218 217 216 216 215 215 215 215 214 211 208 208 208 207 203 199 194 188 184 181 181 182 184 186 187 188 189 189 187 185 182 181 181 185 192 204 215 228 240 252 262 270 274 277 279 280 282 284 286 288 290 292 294
251 249 247 244 239 234 232 231 230 227 225 223 222 221 220 219 217 216 215 215 214 214 214 213 211 209 209 210 208 203 196 188 181 178 179 180 182 184 186 187 186 185 183 182 180 178 176 177 183 194 207 219 231 243 254 263 270 274 276 278 280 282 284 287 289 291 292 294 295
250 249 248 247 244 241 240 239 237 235 232 231 230 230 229 228 226 225 223 221 218 215 214 213 214 216 216 213 205 197 188 181 178 178 181 184 186 187 188 185 180 175 174 174 174 173 175 181 194 209 222 234 245 254 263 269 272 275 278 280 282 285 288 291 293 295 296 296 296
247 248 249 250 252 254 255 255 253 249 245 243 242 242 241 240 237 232 227 223 220 218 219 222 224 221 214 203 192 184 180 179 179 182 185 188 189 189 186 180 172 167 166 169 171 174 181 192 208 223 236 246 256 263 269 272 275 278 279 282 285 290 293 296 298 299 298 297 296
239 239 242 245 250 259 267 270 267 262 255 250 247 244 241 237 231 226 222 221 221 221 221 219 213 204 196 188 180 175 175 178 181 184 185 186 185 182 177 171 166 163 164 168 175 182 193 207 223 237 248 257 264 270 273 275 278 281 284 288 294 298 301 302 302 301 300 299 298
229 229 230 233 242 255 266 269 265 258 250 243 236 231 227 223 221 220 220 219 214 203 191 181 176 173 172 171 172 173 175 177 179 179 178 175 171 167 164 162 160 161 166 173 182 193 207 225 240 251 260 267 271 274 277 280 284 290 296 302 306 308 308 306 305 303 302 301 300
226 226 230 236 247 256 259 255 249 240 232 225 220 216 214 213 213 211 206 195 179 165 157 153 154 158 162 164 168 171 172 172 169 166 162 158 156 155 155 155 157 162 169 179 191 206 225 243 255 263 270 274 278 283 288 294 302 308 312 315 315 313 312 310 308 306 305 304 304
239 245 256 265 265 258 249 240 231 222 216 211 208 204 199 190 179 169 160 148 143 141 142 145 151 156 160 161 162 162 161 158 154 149 146 144 144 147 150 155 160 166 176 190 204 221 239 254 265 273 279 286 293 302 311 317 320 320 320 319 318 316 314 312 311 310 309 308 307
278 282 283 279 267 252 236 222 213 203 195 183 169 156 148 144 140 136 131 128 131 135 140 145 150 153 153 152 151 148 144 141 139 137 137 138 141 147 154 161 168 178 192 207 220 233 246 262 277 288 299 310 318 323 325 326 324 323 321 321 319 318 317 315 314 312 311 310 310
313 305 296 279 256 226 200 181 167 155 141 128 123 123 124 126 127 127 126 127 131 136 141 143 144 144 143 142 139 137 136 136 137 140 142 145 149 154 161 169 180 196 215 233 244 251 260 281 306 319 325 328 328 326 324 322 322 321 321 321 321 320 319 316 315 313 312 311 312
39 38 37 43 60 82 96 104 106 105 105 106 110 114 119 122 124 125 127 130 134 136 137 138 137 137 137 138 139 139 141 144 147 151 152 153 155 157 163 173 192 219 250 277 293 306 319 333 339 336 332 328 324 321 318 317 318 319 320 320 321 321 320 317 315 314 313 313 314
45 44 46 48 52 59 67 77 85 92 97 101 107 112 116 119 121 123 126 129 132 134 134 134 135 137 139 142 144 146 148 150 152 153 153 152 150 151 157 170 203 276 343 352 340 333 333 335 334 331 326 322 319 316 314 313 315 318 319 320 321 321 320 318 317 315 315 315 317
Height
1460 1460 1460 1460 1460 1461 1461 1462 1463 1463 1464 1465 1465 1466 1467 1467 1468 1469 1469 1470 1470 1471 1471 1472 1473 1473 1474 1475 1476 1478 1479 1480 1481 1481 1482 1482 1481 1481 1481 1481 1482 1483 1484 1484 1485 1486 1488 1491 1493 1495 1496 1498 1499 1499 1500 1501 1502 1504 1505 1506 1506 1506 1506 1506 1506 1507 1507 1508 1508
1458 1458 1458 1458 1459 1459 1460 1460 1461 1462 1462 1463 1463 1464 1465 1465 1466 1466 1467 1467 1468 1469 1469 1470 1470 1471 1472 1473 1474 1475 1476 1476 1477 1478 1479 1479 1479 1480 1480 1480 1480 1480 1481 1482 1483 1485 1486 1489 1491 1494 1495 1496 1496 1497 1498 1499 1500 1501 1502 1502 1503 1503 1504 1505 1505 1506 1506 1507 1508
1457 1456 1456 1456 1457 1457 1458 1459 1459 1460 1460 1461 1461 1462 1462 1463 1464 1464 1465 1465 1466 1466 1467 1467 1468 1469 1470 1471 1471 1472 1473 1474 1474 1475 1476 1476 1477 1477 1477 1478 1478 1479 1480 1481 1483 1484 1486 1488 1490 1492 1493 1494 1495 1495 1496 1496 1497 1498 1499 1500 1501 1501 1502 1503 1504 1505 1506 1506 1507
1455 1455 1455 1455 1455 1456 1456 1456 1457 1458 1458 1459 1460 1460 1461 1461 1462 1462 1463 1463 1464 1465 1465 1466 1466 1467 1467 1468 1469 1470 1471 1471 1472 1473 1474 1474 1474 1475 1475 1475 1476 1477 1479 1480 1481 1483 1485 1487 1489 1491 1492 1493 1493 1494 1495 1495 1495 1496 1497 1498 1499 1499 1500 1501 1503 1504 1505 1505 1505
1454 1454 1453 1453 1454 1454 1454 1455 1456 1456 1457 1457 1458 1458 1458 1459 1460 1461 1461 1461 1462 1462 1463 1464 1464 1465 1465 1466 1467 1467 1468 1469 1470 1471 1471 1472 1472 1472 1473 1473 1474 1475 1476 1478 1480 1481 1483 1485 1487 1489 1491 1492 1492 1492 1492 1493 1493 1494 1495 1496 1496 1497 1498 1500 1501 1502 1503 1503 1503
1452 1452 1452 1452 1452 1453 1453 1453 1454 1454 1455 1456 1456 1456 1456 1457 1458 1458 1459 1459 1460 1461 1461 1462 1462 1463 1463 1464 1465 1465 1466 1467 1468 1469 1470 1470 1471 1471 1471 1471 1472 1473 1475 1476 1478 1480 1481 1483 1485 1487 1489 1490 1491 1490 1490 1491 1491 1492 1493 1494 1494 1495 1496 1499 1500 1501 1501 1501 1501
1451 1451 1451 1451 1451 1451 1451 1452 1452 1453 1453 1454 1454 1454 1455 1455 1456 1456 1456 1457 1458 1459 1460 1460 1461 1461 1461 1462 1462 1463 1464 1465 1466 1467 1468 1469 1469 1469 1469 1469 1470 1471 1473 1474 1476 1478 1479 1481 1483 1485 1487 1488 1488 1488 1488 1488 1489 1490 1491 1491 1492 1493 1495 1496 1497 1498 1498 1499 1499
1449 1449 1449 1449 1449 1450 1450 1450 1451 1451 1451 1452 1452 1452 1453 1453 1454 1454 1455 1456 1456 1457 1458 1458 1459 1459 1460 1460 1461 1462 1462 1463 1464 1466 1466 1467 1468 1468 1468 1468 1470 1471 1472 1473 1474 1476 1477 1480 1481 1483 1484 1485 1486 1486 1486 1486 1486 1486 1487 1488 1490 1491 1493 1494 1494 1495 1496 1496 1497
1447 1447 1447 1448 1448 1448 1448 1449 1449 1449 1450 1450 1450 1451 1451 1451 1452 1452 1453 1453 1454 1455 1456 1456 1457 1457 1458 1459 1459 1460 1461 1462 1463 1464 1465 1466 1466 1466 1467 1468 1469 1471 1472 1473 1473 1474 1476 1478 1479 1480 1481 1482 1482 1483 1483 1483 1483 1483 1484 1486 1488 1489 1490 1491 1492 1492 1493 1495 1496
1446 1446 1446 1446 1446 1446 1446 1447 1447 1448 1448 1448 1449 1449 1450 1450 1450 1451 1451 1452 1452 1453 1454 1455 1455 1456 1456 1457 1458 1459 1459 1460 1461 1462 1463 1464 1465 1465 1466 1467 1468 1470 1471 1472 1472 1473 1474 1476 1477 1478 1479 1479 1480 1480 1480 1480 1481 1481 1482 1483 1486 1487 1488 1489 1490 1491 1492 1493 1494
1444 1444 1444 1444 1444 1444 1445 1445 1446 1446 1446 1447 1447 1448 1448 1448 1449 1449 1450 1450 1451 1451 1452 1453 1453 1454 1455 1456 1456 1457 1458 1459 1460 1461 1461 1462 1463 1464 1465 1466 1467 1468 1469 1470 1471 1471 1472 1474 1475 1476 1476 1476 1477 1477 1477 1478 1478 1479 1480 1481 1483 1485 1486 1487 1489 1490 1491 1492 1493
1443 1442 1442 1442 1442 1442 1443 1443 1444 1444 1445 1445 1446 1446 1447 1447 1447 1447 1448 1449 1449 1450 1451 1451 1452 1452 1453 1454 1455 1455 1456 1457 1458 1459 1460 1461 1462 1463 1464 1465 1466 1467 1467 1468 1469 1470 1471 1471 1472 1473 1474 1474 1475 1475 1475 1476 1476 1477 1478 1480 1482 1484 1485 1486 1487 1488 1489 1490 1491
1441 1441 1441 1441 1441 1441 1441 1441 1442 1443 1443 1444 1444 1445 1445 1446 1446 1446 1447 1447 1448 1448 1449 1450 1450 1451 1451 1452 1453 1453 1454 1455 1456 1457 1458 1460 1461 1462 1463 1464 1465 1465 1466 1466 1467 1468 1468 1469 1470 1471 1471 1471 1472 1472 1473 1474 1475 1476 1478 1480 1482 1483 1485 1486 1486 1487 1488 1489 1490
1440 1440 1439 1439 1439 1439 1440 1440 1441 1441 1441 1442 1442 1443 1443 1444 1444 1445 1445 1446 1446 1447 1448 1448 1449 1450 1450 1451 1451 1452 1453 1454 1455 1456 1457 1458 1459 1460 1461 1462 1463 1464 1464 1465 1465 1466 1466 1467 1468 1468 1469 1469 1470 1471 1472 1473 1475 1477 1479 1480 1482 1483 1484 1484 1485 1486 1486 1488 1489
1439 1438 1438 1438 1438 1438 1438 1439 1439 1439 1440 1440 1441 1441 1442 1442 1443 1444 1444 1445 1445 1446 1446 1447 1447 1448 1449 1449 1450 1451 1452 1453 1454 1455 1456 1457 1458 1459 1460 1460 1461 1462 1462 1463 1463 1464 1465 1465 1466 1466 1467 1468 1469 1470 1472 1474 1476 1478 1479 1480 1481 1482 1482 1483 1484 1485 1486 1487 1488
1437 1437 1436 1436 1436 1437 1437 1437 1438 1438 1438 1439 1439 1440 1440 1441 1441 1442 1443 1444 1444 1445 1445 1446 1446 1446 1447 1448 1449 1450 1451 1452 1453 1453 1454 1456 1457 1458 1459 1459 1459 1460 1461 1461 1461 1462 1463 1464 1465 1465 1466 1467 1469 1471 1472 1475 1476 1477 1478 1479 1480 1481 1481 1482 1483 1484 1485 1486 1487
1436 1436 1436 1436 1436 1436 1436 1436 1436 1436 1437 1437 1437 1438 1439 1439 1440 1441 1442 1443 1443 1443 1444 1444 1445 1445 1446 1447 1449 1450 1451 1451 1451 1452 1454 1455 1456 1457 1457 1457 1457 1458 1459 1459 1460 1461 1461 1462 1464 1465 1466 1468 1469 1471 1472 1474 1475 1475 1476 1477 1479 1480 1481 1482 1483 1483 1484 1485 1486
1437 1437 1436 1436 1435 1435 1435 1435 1435 1435 1435 1436 1436 1436 1437 1438 1439 1440 1441 1441 1442 1442 1443 1443 1444 1445 1446 1447 1448 1449 1449 1450 1451 1451 1453 1454 1454 1455 1455 1455 1456 1456 1457 1458 1459 1460 1461 1462 1463 1465 1466 1468 1469 1471 1471 1472 1473 1474 1476 1477 1479 1480 1481 1481 1482 1483 1483 1484 1485
1436 1436 1436 1435 1434 1434 1434 1434 1434 1434 1434 1434 1435 1436 1436 1437 1438 1439 1440 1440 1441 1442 1442 1443 1444 1445 1445 1446 1446 1447 1448 1449 1450 1451 1451 1452 1452 1453 1453 1454 1454 1455 1456 1457 1458 1459 1460 1462 1463 1464 1466 1467 1468 1469 1471 1472 1473 1474 1476 1477 1478 1479 1480 1480 1481 1481 1482 1483 1483
1433 1433 1433 1433 1433 1433 1433 1433 1433 1433 1433 1434 1434 1435 1435 1436 1437 1438 1438 1439 1440 1441 1442 1442 1443 1443 1444 1445 1445 1446 1447 1447 1448 1449 1450 1450 1451 1451 1452 1452 1453 1454 1455 1456 1458 1459 1460 1461 1462 1464 1465 1466 1467 1469 1471 1472 1473 1474 1475 1476 1477 1478 1479 1479 1480 1481 1481 1481 1482
1431 1431 1431 1432 1432 1432 1432 1432 1432 1432 1432 1433 1434 1434 1435 1435 1436 1437 1438 1438 1439 1440 1441 1441 1442 1442 1443 1443 1444 1445 1446 1446 1447 1448 1449 1449 1449 1450 1450 1451 1452 1453 1455 1456 1457 1459 1460 1461 1462 1463 1465 1466 1468 1470 1471 1472 1473 1473 1474 1475 1476 1477 1478 1479 1479 1480 1480 1481 1481
1430 1430 1430 1431 1431 1431 1431 1431 1431 1432 1432 1432 1433 1433 1434 1434 1435 1436 1436 1437 1438 1439 1439 1440 1441 1441 1441 1442 1443 1444 1445 1445 1446 1447 1447 1448 1448 1449 1449 1450 1451 1453 1454 1456 1457 1458 1459 1460 1461 1463 1465 1467 1469 1470 1471 1471 1472 1473 1474 1475 1476 1476 1477 1478 1478 1479 1479 1480 1480
1429 1429 1429 1430 1431 1431 1431 1431 1431 1431 1431 1432 1432 1433 1433 1434 1434 1435 1435 1436 1437 1437 1438 1439 1439 1440 1441 1441 1442 1443 1444 1444 1445 1446 1446 1446 1447 1448 1449 1450 1451 1452 1454 1455 1456 1458 1459 1461 1462 1464 1466 1467 1468 1469 1470 1471 1471 1472 1473 1475 1475 1476 1476 1477 1478 1478 1478 1479 1479
1428 1429 1429 1429 1430 1430 1430 1430 1431 1431 1431 1431 1432 1432 1432 1433 1433 1434 1434 1435 1436 1436 1437 1438 1438 1439 1440 1441 1441 1442 1443 1444 1444 1445 1445 1446 1446 1447 1449 1450 1451 1453 1454 1456 1457 1459 1461 1462 1463 1465 1466 1467 1468 1468 1469 1471 1471 1472 1473 1474 1475 1475 1476 1476 1477 1477 1477 1478 1478
1428 1428 1428 1428 1429 1429 1429 1430 1430 1430 1430 1431 1431 1431 1432 1432 1433 1433 1434 1434 1435 1436 1436 1437 1438 1438 1439 1440 1441 1441 1442 1443 1443 1444 1445 1446 1447 1448 1449 1451 1452 1454 1456 1457 1459 1461 1462 1463 1464 1465 1466 1466 1467 1468 1470 1471 1471 1472 1473 1474 1474 1475 1475 1476 1476 1476 1476 1477 1477
1427 1427 1427 1428 1428 1428 1428 1429 1429 1430 1430 1430 1431 1431 1431 1432 1432 1433 1433 1434 1434 1435 1436 1436 1437 1438 1439 1439 1440 1441 1441 1442 1443 1444 1445 1446 1447 1449 1451 1452 1454 1456 1457 1459 1460 1461 1462 1463 1464 1465 1466 1467 1468 1469 1470 1471 1471 1472 1472 1473 1473 1474 1474 1475 1475 1475 1476 1476 1476
1426 1426 1426 1427 1427 1428 1428 1428 1429 1429 1429 1430 1430 1431 1431 1431 1432 1432 1433 1433 1434 1435 1435 1436 1437 1437 1438 1438 1439 1440 1441 1442 1443 1445 1446 1448 1449 1451 1452 1454 1455 1456 1457 1459 1460 1461 1462 1463 1464 1466 1466 1467 1468 1469 1470 1470 1471 1471 1472 1472 1473 1473 1473 1474 1474 1475 1475 1475 1476
1426 1426 1426 1426 1426 1427 1427 1427 1428 1428 1428 1429 1429 1430 1430 1431 1431 1432 1432 1433 1434 1434 1435 1436 1436 1436 1437 1438 1439 1440 1441 1443 1445 1446 1448 1449 1451 1452 1453 1454 1455 1456 1457 1458 1460 1461 1462 1464 1465 1466 1467 1467 1468 1468 1469 1470 1470 1471 1471 1471 1472 1472 1473 1473 1473 1474 1474 1474 1474
1425 1425 1426 1426 1426 1426 1426 1427 1427 1427 1427 1428 1428 1429 1429 1430 1431 1431 1432 1432 1433 1434 1434 1435 1436 1436 1437 1439 1440 1442 1443 1445 1446 1447 1449 1450 1451 1453 1454 1454 1455 1456 1458 1459 1461 1462 1464 1465 1466 1466 1467 1467 1467 1468 1469 1469 1470 1470 1471 1471 1471 1472 1472 1472 1472 1473 1473 1472 1472
1425 1425 1426 1426 1426 1426 1426 1426 1427 1427 1427 1428 1428 1429 1429 1430 1430 1431 1432 1432 1433 1434 1435 1436 1437 1438 1439 1441 1442 1444 1445 1446 1447 1448 1450 1451 1452 1453 1454 1455 1456 1457 1459 1461 1462 1463 1464 1465 1465 1466 1466 1467 1467 1468 1468 1469 1469 1470 1470 1470 1471 1471 1471 1471 1471 1471 1471 1471 1471
1425 1426 1426 1426 1426 1426 1426 1427 1427 1427 1428 1428 1429 1429 1430 1430 1431 1432 1433 1434 1435 1436 1437 1438 1439 1441 1442 1443 1444 1445 1446 1447 1448 1449 1450 1451 1453 1454 1455 1456 1458 1459 1460 1461 1462 1463 1464 1464 1465 1465 1466 1466 1467 1467 1468 1468 1468 1469 1469 1470 1470 1470 1470 1470 1470 1470 1470 1470 1470
1426 1426 1426 1426 1427 1427 1427 1428 1428 1428 1429 1429 1430 1430 1431 1432 1432 1433 1435 1436 1437 1439 1440 1441 1442 1443 1444 1445 1445 1446 1447 1448 1449 1450 1451 1452 1454 1455 1456 1458 1459 1460 1461 1461 1462 1463 1464 1464 1465 1465 1466 1466 1466 1467 1467 1467 1468 1468 1468 1469 1469 1469 1469 1469 1469 1469 1469 1469 1469
1427 1427 1427 1427 1428 1428 1429 1429 1429 1429 1430 1430 1431 1431 1432 1433 1434 1435 1437 1438 1440 1441 1442 1443 1444 1444 1445 1445 1446 1446 1447 1449 1450 1451 1452 1454 1455 1456 1457 1458 1459 1460 1461 1461 1462 1463 1463 1464 1464 1465 1465 1466 1466 1466 1466 1467 1467 1467 1468 1468 1468 1468 1468 1468 1468 1468 1468 1467 1467
1427 1427 1427 1428 1428 1428 1429 1429 1430 1430 1430 1431 1431 1432 1433 1434 1435 1436 1438 1439 1441 1442 1443 1443 1444 1445 1445 1446 1446 1447 1448 1450 1451 1452 1454 1455 1456 1457 1458 1458 1459 1460 1461 1461 1462 1462 1463 1464 1464 1464 1465 1465 1465 1466 1466 1466 1466 1466 1467 1467 1467 1467 1467 1467 1467 1466 1466 1466 1466
1427 1427 1427 1428 1428 1429 1429 1429 1429 1430 1430 1431 1432 1432 1434 1435 1436 1437 1439 1440 1441 1442 1443 1444 1444 1445 1446 1446 1447 1449 1450 1451 1452 1453 1455 1456 1456 1457 1458 1459 1459 1460 1461 1461 1462 1462 1463 1463 1463 1464 1464 1464 1465 1465 1465 1465 1465 1466 1466 1466 1466 1466 1466 1466 1466 1466 1466 1466 1465
1428 1428 1428 1429 1429 1430 1430 1430 1430 1430 1431 1431 1432 1433 1434 1436 1437 1438 1439 1440 1441 1442 1443 1444 1445 1446 1447 1448 1449 1450 1451 1452 1454 1455 1456 1456 1457 1458 1458 1459 1459 1460 1461 1461 1461 1462 1462 1463 1463 1463 1463 1464 1464 1464 1464 1464 1464 1464 1465 1465 1465 1465 1465 1465 1465 1465 1464 1464 1464
1429 1430 1430 1431 1431 1431 1431 1431 1431 1431 1432 1432 1433 1434 1435 1436 1437 1439 1440 1441 1441 1442 1443 1444 1446 1447 1448 1449 1450 1452 1453 1454 1455 1456 1456 1457 1458 1458 1459 1459 1460 1460 1461 1461 1461 1462 1462 1462 1462 1463 1463 1463 1463 1463 1463 1463 1463 1464 1464 1464 1464 1464 1464 1464 1464 1463 1463 1463 1463
1431 1431 1431 1432 1432 1432 1432 1432 1432 1432 1433 1433 1434 1435 1436 1437 1438 1439 1440 1441 1442 1443 1444 1446 1447 1448 1450 1451 1452 1453 1454 1455 1456 1456 1457 1457 1458 1459 1459 1459 1460 1460 1461 1461 1461 1462 1462 1462 1462 1462 1462 1462 1462 1463 1463 1463 1463 1463 1463 1463 1463 1463 1463 1463 1463 1463 1462 1462 1462
1432 1432 1432 1432 1432 1433 1433 1433 1433 1433 1434 1434 1435 1436 1437 1438 1439 1440 1441 1442 1443 1445 1446 1447 1449 1450 1451 1453 1453 1454 1455 1456 1456 1457 1457 1458 1458 1459 1459 1460 1460 1460 1461 1461 1461 1461 1462 1462 1462 1462 1462 1462 1462 1462 1462 1462 1462 1462 1462 1462 1462 1462 1462 1462 1462 1462 1462 1461 1461
1432 1432 1433 1433 1433 1433 1434 1434 1434 1434 1435 1435 1436 1437 1438 1439 1440 1441 1443 1444 1445 1446 1448 1449 1451 1451 1453 1453 1454 1455 1455 1456 1456 1457 1457 1458 1458 1459 1459 1460 1460 1460 1461 1461 1461 1461 1461 1461 1461 1461 1461 1461 1461 1461 1462 1462 1462 1462 1462 1462 1462 1462 1462 1461 1461 1461 1461 1461 1461
1433 1433 1433 1434 1434 1434 1435 1435 1435 1436 1436 1437 1438 1439 1440 1441 1442 1443 1444 1446 1447 1448 1450 1451 1451 1452 1453 1454 1454 1455 1455 1456 1456 1457 1458 1458 1458 1459 1459 1460 1460 1460 1460 1460 1460 1460 1461 1461 1461 1461 1461 1461 1461 1461 1461 1461 1461 1461 1461 1461 1461 1461 1461 1461 1461 1461 1460 1460 1460